Вернуться в каталог

ONEWEB-0174

АктивенСвязьPO
NORAD 48072·PAYLOAD·🇬🇧 United Kingdom

Запущен Mar 25, 2021 с Vostochny Cosmodrome

Loading…

Ближайшие Пролёты (ближайшие 24 часа)

TLE

СвежийSource: CelesTrak SupGP

Эпоха: Sep 14, 2026, 21:02 UTC

1 48072C 21025AG  26257.87653194  .00000072  00000+0  19624-3 0  2576
2 48072  87.8934 302.3810 0001858 100.4406 295.7482 13.13471384    19

Отслеживайте ONEWEB-0174 в реальном времени с AllMySat

Download on the App Store